Location: Krakow
(50.0830°N, 19.9170°E)
Time: 10:18:22
(UTC+01:00)

Transit 2A - Pass Details

Date: 17 February 2023
Orbit: 591 x 964 km, 66.7° (Epoch: 21 March)

Event Time Altitude Azimuth Distance (km) Brightness Sun altitude
Rises 16:13:59 0° 275° (W) 3,218 10.3 6.2°
Reaches altitude 10° 16:16:56 10° 293° (WNW) 2,367 9.2 5.8°
Maximum altitude 16:20:55 20° 339° (NNW) 1,852 8.0 5.2°
Drops below altitude 10° 16:25:11 10° 26° (NNE) 2,552 8.3 4.6°
Sets 16:28:31 0° 43° (NE) 3,553 8.9 4.1°
